[[{"header":{"parameterUnit":"m.s-1","parameterCategory":1,"la1":30.2991,"la2":30.254,"lo1":-89.0895,"lo2":-89.0444,"dy":0.0017,"dx":0.0017,"nx":28,"ny":28,"refTime":"2024-07-12T21:00:00:Z","depth":0,"parameterNumber":2,"parameterNumberName":"U-component_of_WINDS"},"data":[0,0,0,0,0,0,0,0,0,0,0,0,0,0,0,0,0,0,0,0,0,0,0,0,0,0,0,0,0,0,0,0,0,0,0,0,0,0,0,0,0,0,0,0,0,0,0,0,0,0,0,0,0,0,0,0,0,0,1.1811,1.1812,0,1.1902,1.1903,1.1904,1.1926,1.1925,1.1924,1.1924,1.2022,1.2025,1.2029,0,0,0,0,0,0,0,0,0,0,0,0,0,1.1658,1.1661,1.1811,1.1812,1.1813,1.1902,1.1903,1.1905,1.1926,1.1925,1.1924,1.1923,1.2021,1.2025,1.2029,0,0,0,0,0,0,0,0,0,0,0,0,0,1.1735,1.1662,1.1811,1.1834,1.1837,1.1902,1.1903,1.1905,1.1926,1.1925,1.1924,1.1923,1.202,1.2025,1.2029,1.2078,0,0,1.2044,1.2046,0,0,0,0,0,0,0,0,1.173,1.174,1.183,1.1833,1.1836,1.1901,1.1886,1.1963,1.1926,1.1892,1.1924,1.1923,1.1983,1.1991,1.201,1.2083,1.2087,1.2045,1.2047,1.205,1.2051,0,0,0,0,0,0,0,1.1725,1.1736,1.1847,1.1831,1.1835,1.1841,1.1851,1.19,1.1942,1.1895,1.1897,1.1907,1.1985,1.2006,1.2013,1.2089,1.2044,1.2049,1.2052,1.2054,1.2203,1.2204,0,0,0,0,0,0,1.1715,1.1732,1.1844,1.185,1.178,1.1845,1.1856,1.1882,1.1942,1.195,1.1908,1.1908,1.1998,1.2007,1.2016,1.2076,1.2049,1.2054,1.2057,1.2202,1.2204,1.2205,0,0,0,0,0,0,1.1712,1.1725,1.1841,1.1791,1.1807,1.1849,1.1877,1.1884,1.1905,1.1951,1.1959,1.1921,1.1997,1.201,1.2062,1.2079,1.2056,1.2061,1.2201,1.2203,1.2204,1.2196,0,0,0,0,0,0,1.1707,1.1723,1.1742,1.1792,1.1809,1.1884,1.1878,1.1886,1.1912,1.1913,1.1966,1.1974,1.1998,1.2054,1.2067,1.2086,1.2064,1.22,1.2202,1.2204,1.2195,1.2197,1.2199,0,0,0,0,0,1.1702,1.1737,1.1743,1.1756,1.1833,1.1885,1.1895,1.192,1.1914,1.1933,1.1962,1.1972,1.2076,1.206,1.2073,1.2094,1.2199,1.2201,1.2204,1.2194,1.2196,1.2199,0,0,0,0,0,0,1.1691,1.1744,1.1751,1.1804,1.1839,1.1888,1.1913,1.1923,1.1962,1.1961,1.1993,1.2004,1.2054,1.208,1.2061,1.2144,1.2137,1.2142,1.2125,1.2128,1.213,1.2122,1.2068,0,0,0,0,0,1.1694,1.1731,1.1776,1.1818,1.1835,1.1871,1.1895,1.1911,1.1949,1.1965,1.1999,1.2037,1.2078,1.2105,1.2145,1.2198,1.221,1.222,1.2222,1.2223,1.2227,1.2255,1.226,1.2213,1.2213,1.2213,0,0,1.1703,1.1736,1.1758,1.1817,1.1846,1.1884,1.1884,1.1924,1.1952,1.1972,1.2022,1.2048,1.2093,1.2145,1.217,1.2168,1.2242,1.2226,1.2227,1.223,1.2258,1.2263,1.2267,1.2214,1.2214,1.2214,0,0,1.1736,1.1766,1.1803,1.1831,1.1875,1.1898,1.1907,1.1954,1.1971,1.2022,1.2036,1.2071,1.2142,1.2172,1.2197,1.2239,1.2249,1.2252,1.2263,1.229,1.2294,1.2297,1.2311,1.2315,1.2256,1.2256,1.2256,0,1.1741,1.1797,1.1821,1.186,1.1885,1.1902,1.194,1.1967,1.2023,1.204,1.2037,1.2123,1.2155,1.2214,1.2223,1.2244,1.2255,1.2246,1.2291,1.2294,1.2298,1.2312,1.2317,1.2256,1.2256,1.2256,1.2256,0,1.18,1.1838,1.1863,1.1913,1.1942,1.198,1.201,1.2036,1.2049,1.2073,1.2123,1.2162,1.2209,1.2224,1.2239,1.2285,1.2282,1.2284,1.2278,1.2302,1.2315,1.2321,1.2256,1.2256,1.2256,1.2256,0,0,1.183,1.1891,1.19,1.1922,1.197,1.2001,1.204,1.2084,1.2105,1.2142,1.2175,1.2233,1.2234,1.2263,1.2281,1.2305,1.2334,1.2304,1.2306,1.2307,1.2385,1.2382,1.2387,1.2341,1.2342,1.2343,1.238,0,1.1868,1.1936,1.1958,1.2015,1.205,1.2066,1.21,1.2133,1.2156,1.219,1.2216,1.2255,1.2255,1.2272,1.2296,1.2325,1.2349,1.2323,1.2372,1.2373,1.2359,1.2394,1.2392,1.2426,1.2386,1.2387,1.2387,0,1.1922,1.1957,1.2017,1.2058,1.2074,1.2104,1.2145,1.2177,1.2215,1.223,1.226,1.2275,1.2317,1.2308,1.2365,1.2346,1.2368,1.2385,1.2386,1.2392,1.2381,1.2399,1.2437,1.2442,1.2396,1.2395,1.2395,0,1.1936,1.1999,1.2042,1.206,1.2111,1.2131,1.2153,1.219,1.2215,1.2251,1.2267,1.2309,1.2332,1.2364,1.239,1.2382,1.2444,1.2438,1.2458,1.2457,1.247,1.2469,1.2511,1.2485,1.2485,1.2485,1.2485,0,1.1976,1.2011,1.2048,1.2074,1.2114,1.214,1.2179,1.2202,1.2235,1.2266,1.2284,1.2313,1.2347,1.2381,1.2402,1.2445,1.2456,1.2469,1.2474,1.2467,1.2465,1.2481,1.2479,1.2486,1.2486,1.2486,1.2485,0,1.1998,1.2024,1.2072,1.2114,1.2126,1.2153,1.2191,1.2217,1.224,1.2279,1.229,1.2326,1.2367,1.2396,1.2449,1.2463,1.2509,1.2515,1.2495,1.2498,1.2515,1.2512,1.2568,1.2576,1.2546,1.2546,1.2546,0,1.2021,1.2048,1.2093,1.2114,1.2135,1.217,1.2194,1.2221,1.2245,1.229,1.2311,1.2352,1.2386,1.245,1.2482,1.2522,1.2528,1.2545,1.2535,1.2526,1.2527,1.2525,1.2527,1.2546,1.2547,1.2547,1.2547,0,1.2058,1.2069,1.2103,1.214,1.2168,1.22,1.2232,1.2248,1.228,1.2307,1.2347,1.2374,1.2426,1.2467,1.251,1.2534,1.2546,1.255,1.2556,1.2549,1.2536,1.2541,1.2498,1.2548,1.2548,1.2548,1.2548,1.2548,1.2081,1.2105,1.2139,1.2176,1.2202,1.223,1.2257,1.2281,1.2315,1.2359,1.2372,1.2414,1.2451,1.2509,1.2533,1.2566,1.2566,1.2576,1.2578,1.258,1.2578,1.253,1.2575,1.2575,1.2575,1.2575,1.2575,0,1.2118,1.214,1.2173,1.2216,1.2244,1.2251,1.2286,1.231,1.2345,1.2378,1.241,1.2456,1.2495,1.2529,1.2569,1.2589,1.2595,1.2599,1.2597,1.2602,1.2577,1.2567,1.2593,1.2593,1.2593,1.2593,1.2593,1.2593,1.214,1.2181,1.2196,1.2249,1.2272,1.2311,1.2331,1.2357,1.2383,1.2432,1.2464,1.2485,1.2518,1.256,1.2596,1.2605,1.2619,1.2621,1.2631,1.2607,1.2604,1.2602,1.2593,1.2624,1.2624,1.2653,1.2653,1.2654]},{"header":{"parameterUnit":"m.s-1","parameterCategory":1,"la1":30.2991,"la2":30.254,"lo1":-89.0895,"lo2":-89.0444,"dy":0.0017,"dx":0.0017,"nx":28,"ny":28,"refTime":"2024-07-12T21:00:00:Z","depth":0,"parameterNumber":3,"parameterNumberName":"V-component_of_WINDS"},"data":[0,0,0,0,0,0,0,0,0,0,0,0,0,0,0,0,0,0,0,0,0,0,0,0,0,0,0,0,0,0,0,0,0,0,0,0,0,0,0,0,0,0,0,0,0,0,0,0,0,0,0,0,0,0,0,0,0,0,4.7847,4.7847,0,4.7801,4.78,4.78,4.771,4.7709,4.7707,4.7705,4.7659,4.7659,4.766,0,0,0,0,0,0,0,0,0,0,0,0,0,4.7859,4.7859,4.7847,4.7846,4.7846,4.7801,4.78,4.78,4.7711,4.7708,4.7706,4.7704,4.7659,4.7659,4.766,0,0,0,0,0,0,0,0,0,0,0,0,0,4.7838,4.7859,4.7847,4.7796,4.7791,4.7801,4.78,4.7799,4.7711,4.7708,4.7706,4.7703,4.7659,4.7659,4.766,4.7716,0,0,4.7662,4.7662,0,0,0,0,0,0,0,0,4.7839,4.7837,4.7804,4.78,4.7794,4.7759,4.7787,4.7772,4.7712,4.7741,4.7705,4.7702,4.7694,4.7692,4.7689,4.7714,4.7712,4.7662,4.7662,4.7662,4.7663,0,0,0,0,0,0,0,4.784,4.7839,4.7829,4.7804,4.7798,4.7776,4.777,4.7784,4.7733,4.7739,4.7732,4.7728,4.7691,4.7689,4.7687,4.7712,4.7662,4.7662,4.7663,4.7663,4.7779,4.7782,0,0,0,0,0,0,4.7849,4.784,4.783,4.7827,4.781,4.7778,4.7771,4.7773,4.7733,4.7724,4.773,4.7724,4.7689,4.7687,4.7685,4.7747,4.7662,4.7663,4.7663,4.7776,4.778,4.7782,0,0,0,0,0,0,4.785,4.7849,4.7832,4.7832,4.7828,4.778,4.7783,4.7773,4.777,4.7726,4.7717,4.7737,4.7687,4.7684,4.7709,4.7744,4.7663,4.7664,4.7773,4.7777,4.7781,4.7872,0,0,0,0,0,0,4.7851,4.785,4.7871,4.7833,4.7829,4.7856,4.7785,4.7774,4.7772,4.7763,4.773,4.7722,4.7684,4.7708,4.7709,4.7744,4.7664,4.777,4.7775,4.778,4.7866,4.7879,4.789,0,0,0,0,0,4.7851,4.7899,4.7872,4.7871,4.7853,4.7859,4.7856,4.7811,4.7775,4.7795,4.7767,4.7723,4.7741,4.7712,4.7712,4.7747,4.7767,4.7773,4.7779,4.786,4.7876,4.789,0,0,0,0,0,0,4.7942,4.7893,4.7863,4.79,4.7884,4.7843,4.7868,4.783,4.7824,4.7817,4.7762,4.7755,4.7786,4.7769,4.7738,4.7799,4.7747,4.7753,4.7808,4.7823,4.7835,4.7838,4.7665,0,0,0,0,0,4.7967,4.7975,4.7931,4.7968,4.7961,4.7916,4.7917,4.7884,4.7865,4.7858,4.7832,4.7816,4.7817,4.782,4.7819,4.7864,4.7854,4.7888,4.79,4.791,4.7916,4.7936,4.795,4.7803,4.7803,4.7802,0,0,4.8017,4.7991,4.7999,4.7985,4.7969,4.7978,4.7911,4.7924,4.793,4.7861,4.7881,4.7861,4.784,4.7874,4.7888,4.7861,4.7955,4.7918,4.7926,4.7926,4.7944,4.7958,4.7971,4.7807,4.7806,4.7805,0,0,4.8112,4.8095,4.8122,4.8107,4.8083,4.8053,4.806,4.8025,4.8009,4.8029,4.7976,4.7983,4.7988,4.7974,4.7968,4.8059,4.8018,4.806,4.8123,4.8144,4.8155,4.8165,4.8196,4.8208,4.8066,4.8067,4.8067,0,4.8178,4.8189,4.8141,4.8157,4.8152,4.8089,4.8116,4.8104,4.8082,4.808,4.805,4.8053,4.8035,4.8064,4.8086,4.8084,4.8089,4.8062,4.8158,4.8167,4.8176,4.8204,4.8216,4.8072,4.8071,4.8071,4.807,0,4.827,4.8279,4.8304,4.8283,4.8281,4.8303,4.8258,4.8262,4.823,4.8202,4.8223,4.8199,4.8191,4.8196,4.8165,4.8221,4.8205,4.8167,4.8114,4.8196,4.8221,4.8232,4.8079,4.8077,4.8076,4.8074,0,0,4.8419,4.8372,4.8381,4.8371,4.834,4.8346,4.8365,4.8357,4.8361,4.8348,4.8362,4.8367,4.8332,4.8325,4.8292,4.8311,4.8382,4.827,4.8269,4.829,4.844,4.8467,4.8481,4.8356,4.8358,4.8359,4.8441,0,4.8506,4.8535,4.8492,4.853,4.8537,4.8478,4.8494,4.8478,4.8453,4.8456,4.8429,4.8433,4.8387,4.8382,4.8398,4.837,4.8411,4.8364,4.8367,4.8367,4.8372,4.8494,4.8523,4.8602,4.8451,4.8453,4.8454,0,4.8611,4.8602,4.8641,4.8607,4.8609,4.8624,4.8613,4.8617,4.8596,4.8577,4.857,4.853,4.8546,4.8496,4.8517,4.8485,4.8485,4.8471,4.8473,4.847,4.8415,4.8493,4.8626,4.8638,4.847,4.8469,4.8468,0,4.8714,4.8712,4.8734,4.8727,4.8689,4.8701,4.8686,4.8663,4.8661,4.8652,4.865,4.8643,4.8639,4.8635,4.8594,4.8562,4.862,4.8567,4.8603,4.8604,4.8616,4.8616,4.875,4.862,4.862,4.8619,4.8619,0,4.8814,4.8839,4.878,4.8793,4.882,4.8772,4.88,4.8779,4.8759,4.8767,4.8717,4.8726,4.8673,4.8677,4.8646,4.8666,4.8666,4.865,4.8641,4.8653,4.8655,4.865,4.8643,4.8622,4.8622,4.8621,4.8621,0,4.8931,4.8893,4.8913,4.8876,4.8867,4.8888,4.8856,4.8867,4.884,4.8851,4.8851,4.8808,4.8809,4.8769,4.8763,4.8742,4.8776,4.8758,4.8783,4.8776,4.8815,4.8811,4.8948,4.8963,4.8826,4.8828,4.8829,0,4.8996,4.9014,4.8979,4.8981,4.8968,4.8972,4.8969,4.8923,4.8922,4.89,4.8914,4.8911,4.8906,4.8911,4.888,4.8874,4.8855,4.8903,4.8854,4.8865,4.8853,4.8852,4.8853,4.8913,4.8915,4.8916,4.8918,0,4.9115,4.9095,4.9093,4.9085,4.9083,4.9074,4.9062,4.9067,4.9016,4.9018,4.9018,4.9015,4.9008,4.9006,4.8994,4.8979,4.894,4.8934,4.8942,4.8953,4.8966,4.8958,4.8809,4.893,4.8929,4.8928,4.8927,4.8927,4.9207,4.922,4.9197,4.9196,4.9182,4.9172,4.918,4.9154,4.9154,4.9144,4.9117,4.9122,4.9101,4.9082,4.907,4.9073,4.9049,4.9061,4.9064,4.9067,4.9073,4.8967,4.9071,4.9071,4.9071,4.907,4.907,0,4.9321,4.9304,4.9304,4.9288,4.9288,4.9252,4.9237,4.9238,4.9243,4.9227,4.9224,4.9224,4.9222,4.919,4.9184,4.9193,4.9174,4.9192,4.919,4.9187,4.9096,4.9089,4.9207,4.9207,4.9207,4.9207,4.9207,4.9207,4.938,4.94,4.9378,4.939,4.9372,4.9376,4.937,4.9361,4.9347,4.935,4.9348,4.9328,4.9305,4.9297,4.9293,4.9284,4.9283,4.9307,4.9292,4.9207,4.9193,4.9181,4.9174,4.9308,4.9308,4.9382,4.9382,4.9383]}]]